Вернуться в каталог

STARLINK-33804

АктивенСвязьVLEO
NORAD 63511·PAYLOAD·🇺🇸 United States

Запущен Apr 7, 2025 с Vandenberg Space Force Base

Loading…

Ближайшие Пролёты (ближайшие 24 часа)

TLE

СвежийSource: CelesTrak SupGP

Эпоха: Sep 14, 2026, 21:31 UTC

1 63511C 25071U   26257.89701389 -.00017994  00000+0 -57878-3 0  2574
2 63511  53.1607 339.9199 0001231  79.9225 299.4095 15.31703073    13

Отслеживайте STARLINK-33804 в реальном времени с AllMySat

Download on the App Store